Weather History for Las Cruces, NM

Change the Weather History Date:

Thursday, November 1, 2012

  Actual Average Record
Temperature  
Mean Temperature 58 °F -  
Max Temperature 78 °F 67 °F 80 °F (2003)
Min Temperature 39 °F 44 °F 35 °F (2005)
Degree Days  
Heating Degree Days 6    
Growing Degree Days 8 (Base 50)    
Moisture  
Dew Point 16 °F    
Average Humidity 21    
Maximum Humidity 33    
Minimum Humidity 10    
Precipitation  
Precipitation 0.00 in - - ()
Sea Level Pressure  
Sea Level Pressure 30.11 in    
Wind  
Wind Speed 3 mph (South)    
Max Wind Speed 7 mph    
Max Gust Speed -    
Visibility 10 miles    
Events      
Averages and records for this station are not official NWS values.
T = Trace of Precipitation, MM = Missing Value Source: NWS Daily Summary

Daily Weather History Graph

Daily Weather History Graph

Search for Another Location

Airport:

Trip Planner

Search our weather history database for the weather conditions in past years. The results will help you decide how hot, cold, wet, or windy it might be!

Date:

Astronomy

Nov. 01, 2012 Rise Set
Actual Time 7:25 AM MDT 6:16 PM MDT
Civil Twilight 6:59 AM MDT 6:42 PM MDT
Nautical Twilight 6:30 AM MDT 7:11 PM MDT
Astronomical Twilight 6:02 AM MDT 7:39 PM MDT
Moon 8:23 PM MDT (11/1) 9:53 AM MDT (11/1)
Length of Visible Light 11h 42m
Length of Day
10h 51m
Waning Gibbous, 92% of the Moon is Illuminated
Nov 1
Waning Gibbous
Nov 6
Last Quarter
Nov 13
New
Nov 20
First Quarter
Nov 28
Full

Hourly Weather History & Observations

Time (MDT) Temp. Windchill Dew Point Humidity Pressure Visibility Wind Dir Wind Speed Gust Speed Precip Events Conditions
12:15 AM 46.6 °F - 13.3 °F 26% 30.13 in 10.0 mi Calm Calm - N/A   Clear
12:35 AM 47.5 °F - 13.8 °F 26% 30.13 in 10.0 mi Calm Calm - N/A   Clear
12:55 AM 47.8 °F - 14.0 °F 26% 30.13 in 10.0 mi North 3.5 mph - N/A   Clear
1:15 AM 48.0 °F - 14.9 °F 27% 30.13 in 10.0 mi NW 4.6 mph - N/A   Clear
1:35 AM 46.0 °F - 13.6 °F 27% 30.13 in 10.0 mi Calm Calm - N/A   Clear
1:55 AM 46.6 °F - 14.0 °F 27% 30.13 in 10.0 mi NNW 4.6 mph - N/A   Clear
2:15 AM 45.5 °F 42.5 °F 13.1 °F 27% 30.13 in 10.0 mi NW 5.8 mph - N/A   Clear
2:35 AM 45.5 °F 41.8 °F 13.5 °F 27% 30.13 in 10.0 mi WNW 6.9 mph - N/A   Clear
2:55 AM 46.2 °F 44.1 °F 13.8 °F 27% 30.13 in 10.0 mi NW 4.6 mph - N/A   Clear
3:15 AM 45.3 °F 44.0 °F 13.8 °F 28% 30.13 in 10.0 mi WNW 3.5 mph - N/A   Clear
3:35 AM 45.5 °F - 14.2 °F 28% 30.13 in 10.0 mi Calm Calm - N/A   Clear
3:55 AM 47.7 °F - 14.0 °F 26% 30.13 in 10.0 mi East 4.6 mph - N/A   Clear
4:15 AM 47.7 °F - 15.4 °F 28% 30.13 in 10.0 mi SE 3.5 mph - N/A   Clear
4:35 AM 43.7 °F - 14.0 °F 30% 30.13 in 10.0 mi Calm Calm - N/A   Clear
4:55 AM 43.7 °F - 14.0 °F 30% 30.13 in 10.0 mi Calm Calm - N/A   Clear
5:15 AM 40.8 °F - 12.7 °F 32% 30.13 in 10.0 mi Calm Calm - N/A   Clear
5:35 AM 40.3 °F 38.2 °F 12.9 °F 33% 30.13 in 10.0 mi NNW 3.5 mph - N/A   Clear
5:55 AM 39.4 °F 36.1 °F 12.2 °F 33% 30.13 in 10.0 mi NNW 4.6 mph - N/A   Clear
6:15 AM 40.8 °F 37.8 °F 13.3 °F 33% 30.14 in 10.0 mi North 4.6 mph - N/A   Clear
6:35 AM 41.2 °F 38.2 °F 13.6 °F 33% 30.14 in 10.0 mi NNW 4.6 mph - N/A   Clear
6:55 AM 41.0 °F - 13.8 °F 33% 30.15 in 10.0 mi Calm Calm - N/A   Clear
7:15 AM 42.3 °F 40.5 °F 14.4 °F 32% 30.15 in 10.0 mi North 3.5 mph - N/A   Clear
7:35 AM 42.3 °F 39.4 °F 14.4 °F 32% 30.15 in 10.0 mi NNW 4.6 mph - N/A   Clear
7:55 AM 42.1 °F 40.2 °F 14.2 °F 32% 30.16 in 10.0 mi North 3.5 mph - N/A   Clear
8:15 AM 47.7 °F - 15.6 °F 28% 30.16 in 10.0 mi Calm Calm - N/A   Clear
8:35 AM 49.8 °F - 15.6 °F 26% 30.17 in 10.0 mi Calm Calm - N/A   Clear
8:55 AM 53.2 °F - 16.5 °F 24% 30.17 in 10.0 mi Calm Calm - N/A   Clear
9:15 AM 58.1 °F - 17.4 °F 20% 30.17 in 10.0 mi Calm Calm - N/A   Clear
9:35 AM 62.6 °F - 19.0 °F 19% 30.17 in 10.0 mi Calm Calm - N/A   Clear
9:55 AM 62.2 °F - 19.6 °F 19% 30.18 in 10.0 mi Calm Calm - N/A   Clear
10:15 AM 64.4 °F - 19.0 °F 18% 30.17 in 10.0 mi Calm Calm - N/A   Clear
10:35 AM 64.9 °F - 19.2 °F 17% 30.17 in 10.0 mi East 3.5 mph - N/A   Clear
10:55 AM 66.4 °F - 18.1 °F 16% 30.17 in 10.0 mi East 3.5 mph - N/A   Clear
11:15 AM 67.8 °F - 17.6 °F 15% 30.17 in 10.0 mi SE 3.5 mph - N/A   Clear
11:55 AM 70.2 °F - 18.1 °F 14% 30.16 in 10.0 mi ESE 3.5 mph - N/A   Clear
12:15 PM 71.6 °F - 18.5 °F 13% 30.15 in 10.0 mi Calm Calm - N/A   Clear
12:35 PM 72.9 °F - 18.5 °F 13% 30.14 in 10.0 mi SE 3.5 mph - N/A   Clear
12:55 PM 73.9 °F - 18.1 °F 12% 30.14 in 10.0 mi SSE 4.6 mph - N/A   Clear
1:15 PM 75.6 °F - 18.0 °F 11% 30.12 in 10.0 mi Calm Calm - N/A   Clear
1:35 PM 75.0 °F - 17.6 °F 11% 30.11 in 10.0 mi Calm Calm - N/A   Clear
1:55 PM 76.8 °F - 17.6 °F 11% 30.10 in 10.0 mi SSW 4.6 mph - N/A   Clear
2:15 PM 77.7 °F - 18.0 °F 11% 30.09 in 10.0 mi Calm Calm - N/A   Clear
2:35 PM 76.8 °F - 17.2 °F 11% 30.08 in 10.0 mi SSW 6.9 mph - N/A   Clear
2:55 PM 78.3 °F - 17.6 °F 10% 30.07 in 10.0 mi South 5.8 mph - N/A   Clear
3:15 PM 77.5 °F - 18.0 °F 11% 30.07 in 10.0 mi SW 4.6 mph - N/A   Clear
3:35 PM 77.4 °F - 18.1 °F 11% 30.07 in 10.0 mi SSW 4.6 mph - N/A   Clear
3:55 PM 78.4 °F - 18.5 °F 11% 30.06 in 10.0 mi South 5.8 mph - N/A   Clear
4:15 PM 78.3 °F - 18.5 °F 11% 30.05 in 10.0 mi South 5.8 mph - N/A   Clear
4:35 PM 77.5 °F - 18.3 °F 11% 30.05 in 10.0 mi Calm Calm - N/A   Clear
4:55 PM 77.7 °F - 18.1 °F 11% 30.04 in 10.0 mi South 3.5 mph - N/A   Clear
5:15 PM 77.0 °F - 18.0 °F 11% 30.04 in 10.0 mi SSE 4.6 mph - N/A   Clear
5:35 PM 76.1 °F - 19.2 °F 12% 30.04 in 10.0 mi ESE 6.9 mph - N/A   Clear
5:55 PM 74.5 °F - 18.9 °F 12% 30.05 in 10.0 mi ESE 3.5 mph - N/A   Clear
6:15 PM 71.2 °F - 18.5 °F 14% 30.05 in 10.0 mi ESE 4.6 mph - N/A   Clear
6:35 PM 68.2 °F - 18.1 °F 15% 30.05 in 10.0 mi Calm Calm - N/A   Clear
6:55 PM 63.7 °F - 16.9 °F 16% 30.05 in 10.0 mi SE 4.6 mph - N/A   Clear
7:15 PM 65.7 °F - 17.4 °F 16% 30.06 in 10.0 mi SSE 4.6 mph - N/A   Clear
7:35 PM 68.0 °F - 17.2 °F 14% 30.05 in 10.0 mi SSE 4.6 mph - N/A   Clear
7:55 PM 63.0 °F - 15.4 °F 16% 30.06 in 10.0 mi South 3.5 mph - N/A   Clear
8:15 PM 55.0 °F - 13.5 °F 19% 30.06 in 10.0 mi Calm Calm - N/A   Clear
8:35 PM 53.6 °F - 13.6 °F 21% 30.05 in 10.0 mi SSW 3.5 mph - N/A   Clear
8:55 PM 54.0 °F - 14.4 °F 21% 30.05 in 10.0 mi SSW 3.5 mph - N/A   Clear
9:15 PM 54.3 °F - 13.3 °F 20% 30.06 in 10.0 mi SSW 4.6 mph - N/A   Clear
9:35 PM 50.2 °F - 12.0 °F 22% 30.05 in 10.0 mi SSW 4.6 mph - N/A   Clear
9:55 PM 50.5 °F - 12.7 °F 22% 30.05 in 10.0 mi Calm Calm - N/A   Clear
10:15 PM 50.5 °F - 12.9 °F 22% 30.06 in 10.0 mi South 3.5 mph - N/A   Clear
10:35 PM 48.0 °F - 10.8 °F 22% 30.06 in 10.0 mi SSE 3.5 mph - N/A   Clear
10:55 PM 59.7 °F - 13.8 °F 17% 30.06 in 10.0 mi SSE 4.6 mph - N/A   Clear
11:15 PM 52.2 °F - 11.8 °F 20% 30.06 in 10.0 mi South 4.6 mph - N/A   Clear
11:35 PM 48.4 °F - 11.5 °F 23% 30.06 in 10.0 mi Calm Calm - N/A   Clear
11:55 PM 48.2 °F - 11.8 °F 23% 30.06 in 10.0 mi Calm Calm - N/A   Clear